Total_Precipitation_Accumulation
1.08 0.89 0.71 0.90 0.58 0.30 0.20 0.11 0.06 0.04 0.02 0.00 0.00 0.00 0.00 0.00 0.00 0.00 0.01 0.01 0.00 0.01 0.02 0.01 0.00 0.00 0.00 0.00 0.00 0.00 0.00 0.00
0.62 1.18 0.86 1.14 0.83 0.46 0.26 0.16 0.06 0.04 0.02 0.00 0.00 0.00 0.00 0.00 0.00 0.00 0.01 0.01 0.00 0.00 0.00 0.00 0.00 0.00 0.00 0.00 0.00 0.00 0.00 0.00
0.62 0.83 0.88 0.64 0.68 0.56 0.46 0.20 0.17 0.08 0.00 0.00 0.00 0.00 0.00 0.00 0.00 0.00 0.00 0.01 0.00 0.00 0.00 0.00 0.00 0.00 0.00 0.00 0.00 0.00 0.00 0.00
0.33 0.61 0.87 0.76 0.35 0.36 0.58 0.41 0.17 0.19 0.05 0.00 0.00 0.00 0.00 0.00 0.00 0.01 0.01 0.01 0.00 0.00 0.00 0.00 0.00 0.00 0.00 0.00 0.00 0.00 0.00 0.00
0.74 0.40 0.40 0.86 0.91 0.38 0.55 0.73 0.33 0.14 0.07 0.01 0.00 0.00 0.00 0.00 0.00 0.00 0.01 0.02 0.01 0.00 0.00 0.00 0.00 0.00 0.00 0.00 0.00 0.00 0.00 0.00
0.64 0.77 0.47 0.45 1.12 1.09 0.97 0.89 0.75 0.31 0.08 0.01 0.00 0.00 0.00 0.00 0.00 0.01 0.02 0.01 0.01 0.00 0.00 0.00 0.00 0.00 0.00 0.00 0.00 0.00 0.00 0.00
0.37 0.49 0.76 0.70 0.51 0.92 1.39 1.56 1.05 0.64 0.28 0.06 0.01 0.00 0.00 0.00 0.00 0.01 0.02 0.01 0.00 0.00 0.00 0.00 0.00 0.00 0.00 0.00 0.00 0.00 0.00 0.00
0.88 0.32 0.52 0.85 0.94 0.44 0.62 1.45 1.38 0.78 0.35 0.17 0.05 0.01 0.00 0.00 0.01 0.02 0.01 0.00 0.00 0.00 0.00 0.00 0.00 0.00 0.00 0.00 0.00 0.00 0.00 0.00
0.61 0.77 0.40 0.77 1.04 0.95 0.39 0.64 0.99 1.01 0.55 0.22 0.09 0.03 0.02 0.02 0.02 0.01 0.00 0.00 0.00 0.00 0.00 0.00 0.00 0.00 0.00 0.00 0.00 0.00 0.00 0.00
0.35 0.41 0.65 0.60 1.01 1.16 0.78 0.50 0.73 0.64 0.74 0.38 0.15 0.06 0.06 0.03 0.01 0.01 0.00 0.00 0.00 0.00 0.00 0.00 0.00 0.00 0.00 0.00 0.00 0.00 0.00 0.00
0.65 0.35 0.28 0.80 0.88 1.41 1.26 0.74 0.59 0.73 0.55 0.55 0.23 0.08 0.05 0.05 0.02 0.00 0.00 0.00 0.00 0.00 0.00 0.00 0.00 0.00 0.00 0.00 0.00 0.00 0.00 0.00
0.07 0.59 0.23 0.67 0.98 1.06 1.41 1.35 0.92 0.59 0.56 0.42 0.33 0.14 0.06 0.04 0.01 0.00 0.00 0.00 0.00 0.00 0.00 0.00 0.00 0.00 0.00 0.00 0.00 0.00 0.00 0.00
0.00 0.24 0.40 0.38 0.79 0.82 0.87 1.26 1.68 0.95 0.55 0.42 0.31 0.24 0.10 0.04 0.01 0.00 0.00 0.00 0.00 0.00 0.00 0.00 0.00 0.00 0.00 0.00 0.00 0.00 0.00 0.00
0.04 0.10 0.25 0.36 0.24 0.61 0.63 0.41 0.94 1.33 1.10 0.68 0.37 0.36 0.15 0.04 0.01 0.00 0.00 0.00 0.00 0.00 0.00 0.00 0.00 0.00 0.00 0.00 0.00 0.00 0.00 0.00
0.03 0.02 0.09 0.23 0.36 0.31 0.66 0.39 0.41 0.73 0.90 0.90 0.57 0.39 0.19 0.05 0.02 0.01 0.00 0.00 0.00 0.00 0.00 0.00 0.00 0.00 0.00 0.00 0.00 0.00 0.00 0.00
0.16 0.14 0.12 0.16 0.21 0.14 0.45 0.65 0.57 0.35 0.49 0.45 0.53 0.45 0.29 0.08 0.03 0.01 0.00 0.00 0.00 0.00 0.00 0.00 0.00 0.00 0.00 0.00 0.00 0.00 0.00 0.00
0.37 0.20 0.20 0.23 0.22 0.23 0.24 0.58 0.47 0.35 0.28 0.31 0.34 0.37 0.30 0.10 0.05 0.01 0.00 0.00 0.00 0.00 0.00 0.00 0.00 0.00 0.00 0.00 0.00 0.00 0.00 0.00
0.66 0.50 0.39 0.21 0.29 0.33 0.24 0.43 0.71 0.42 0.37 0.24 0.27 0.30 0.26 0.10 0.06 0.02 0.00 0.00 0.00 0.00 0.00 0.00 0.00 0.00 0.00 0.00 0.00 0.00 0.00 0.00
1.37 0.94 0.66 0.48 0.33 0.50 0.62 0.53 0.62 0.71 0.50 0.19 0.20 0.36 0.31 0.19 0.08 0.03 0.01 0.00 0.00 0.00 0.00 0.00 0.00 0.00 0.00 0.00 0.00 0.00 0.00 0.00